sat.trackr.live / text

‹ back to catalog

TIANTONG-1 1

NORAD 41725 · 2016-048A

PAYLOAD ACTIVE UNKNOWN

§ Identity

Operator
Country
PRC
Launch date
2016-08-05
Launch site
XICLF
Launch vehicle
Mass (kg)
RCS (m²)
27.90

Purposes: comms

External: N2YO · Heavens-Above · Gunter

§ Orbital elements

Epoch: 2026-05-25T02:47:21.693120Z

Period
1,436.12 min
Inclination
3.8072°
Eccentricity
0.0006335
Mean motion
1.00270510 rev/d
Perigee alt
35,760.2 km
Apogee alt
35,813.7 km
Semi-major
42,165.1 km
B*
0.0000e+0
RAAN
43.2367°
Arg perigee
34.2605°
Mean anomaly
308.4687°
Rev number
3,603

§ Raw data

TIANTONG-1 11 41725U 16048A   26145.11622330 -.00000320  00000+0  00000+0 0  99982 41725   3.8072  43.2367 0006335  34.2605 308.4687  1.00270510 36037

JSON: /api/v1/satellites/41725 · /tle

For live sub-satellite position, see the globe view (requires WebGL).

§ Visibility from observer

Set your observer location to see the next 7 days of passes ≥ 10°. The values pass through the URL so the page stays shareable.

No JS? Fill the form by hand. The geolocation button needs JavaScript.